Location: Madrid
(40.4167°N, 3.7036°W)
Time: 03:39:33
(UTC+00:00)

ISS - Pass Details

Date: 25 February 2026
Orbit: 417 x 426 km, 51.6° (Epoch: 16 March)

Event Time Altitude Azimuth Distance (km) Brightness Sun altitude
Exits shadow 06:19:39 - 317° (NW) 2,016 -0.7 -7.4°
Reaches altitude 10° 06:21:13 10° 331° (NNW) 1,499 -1.3 -7.1°
Maximum altitude 06:23:43 19° 19° (NNE) 1,059 -1.5 -6.7°
Drops below altitude 10° 06:26:14 10° 68° (ENE) 1,494 0.2 -6.2°
Sets 06:28:44 0° 87° (E) 2,355 2.3 -5.7°
